Hourly Weather Roundup
Issued by NWS Central Illinois

Home | Current Version | Previous Version | Text Only | Print | Product List | Glossary On
Versions: 1 2 3 4 5 6 7 8 9 10 11 12 13 14 15 16 17 18 19 20 21 22 23 24 25 26 27 28 29 30 31 32 33 34 35 36 37 38 39 40 41 42 43 44 45 46 47 48 49 50
000
NZUS43 KILX 291610
HWRILX

Area Weather Roundup
National Weather Service Lincoln IL
1100 AM CDT SAT APR 29 2017

NOTE:  "FAIR" indicates few or no clouds below 12,000 feet, with
       no sigificant weather and/or obstructions to visibility.


CITY           SKY/WX    TMP DP  RH WIND       PRES   REMARKS
Bloomington    RAIN      47  44  90 NE21      30.10F FOG
Champaign      HVY RAIN  50  47  89 NE13      30.11R FOG
Danville       HVY RAIN  50  49  97 N10       30.06R
Decatur        RAIN      49  49 100 NE16      30.03F FOG
Effingham      CLOUDY    60  60 100 E8        30.01F
Flora          MOSUNNY   69  66  89 SE10      29.99F
Galesburg      DRIZZLE   45  40  83 NE13      30.11R
Jacksonville   TSTM      48  47  97 E16       30.02F
Lacon          RAIN      46  40  77 E15G21    30.11R
Lawrenceville  CLOUDY    71  66  84 SE17      30.01R
Litchfield     RAIN      52  52  99 NE14      29.96F
$$


CITY           SKY/WX    TMP DP  RH WIND       PRES   REMARKS
Lincoln        HVY RAIN  49  48  98 E9        30.09R
Macomb         RAIN      47  45  93 NE18      30.06S
Mattoon        LGT RAIN  58  57  97 N8        30.02F
Mt Carmel AP   CLOUDY    71  65  81 SE13      30.01R
Olney-Noble AP PTSUNNY   68  68 100 E10       30.00S
Paris AP       LGT RAIN  56  56 100 SW12G22   30.07R
Peoria         LGT RAIN  47  42  83 NE21G28   30.08R
Pontiac        LGT RAIN  49  43  79 E10G20    30.18R
Rantoul        RAIN      50  49  96 NE12G18   30.11R
Robinson       CLOUDY    65  64  96 SE7       30.03S
Springfield    HVY RAIN  50  48  93 E20       30.03F FOG
Taylorville    RAIN      49  49  99 NE16G23   30.01F
$$

...REGIONAL REPORTS...


CITY           SKY/WX    TMP DP  RH WIND       PRES   REMARKS
Chicago O`Hare CLOUDY    45  32  60 NE22G32   30.15R
Kankakee       CLOUDY    47  40  75 NE16G28   30.13R
Moline         LGT RAIN  45  37  73 NE17      30.11R
Mount Sterling RAIN      46  45  95 E18G26    30.00S
Mount Vernon   CLOUDY    67  64  90 E6        29.97F
Pittsfield     CLOUDY    49  49  98 E16       30.00S
Quincy         HVY RAIN  48  47  96 NE16      30.00R FOG
Rockford       CLOUDY    47  33  58 NE22      30.16S
$$


CITY           SKY/WX    TMP DP  RH WIND       PRES   REMARKS
Burlington     RAIN      46  44  93 NE17      30.08R
Cedar Rapids   CLOUDY    46  36  68 NE21      30.09R
Des Moines     LGT RAIN  45  38  76 E15G25    30.08S
Kirksville     CLOUDY    48  30  49 NE24G31   29.95F
Ottumwa        LGT RAIN  46  43  89 E14       30.10R FOG
St Louis       TSTM      60  57  89 E17G23    29.90F FOG
$$


CITY           SKY/WX    TMP DP  RH WIND       PRES   REMARKS
Terre Haute    LGT RAIN  61  59  93 E7        30.03R
Evansville     CLOUDY    70  63  78 E8        30.01S
Indianapolis   CLOUDY    58  57  97 E8        30.06R
Lafayette      LGT RAIN  53  53 100 NE15      30.04F FOG
Madison        CLOUDY    44  33  65 NE21G28   30.20F
Milwaukee      CLOUDY    42  32  67 N21G35    30.22S WCI  33
$$





USA.gov is the U.S. government's official web portal to all federal, state and local government web resources and services.